KE9LZ Weather Reports


time (UTC)temp
F
wind
direction
speed
knots
gust
knots
rain 1hr
in
rain 24hr
in
rain mn
in
humidity
%
barometer
mb
20260508194003 65 232 6.1 12.2 0.00 0.00 0.00 28 1010.2
20260508193003 64 246 4.3 13.9 0.00 0.00 0.00 28 1010.2
20260508192003 65 270 7.8 15.6 0.00 0.00 0.00 28 1010.5
20260508191004 65 268 8.7 19.1 0.00 0.00 0.00 28 1010.6
20260508190003 66 295 9.6 15.6 0.00 0.00 0.00 27 1010.5
20260508185004 64 256 6.1 17.4 0.00 0.00 0.00 28 1010.8
20260508183003 64 169 4.3 10.4 0.00 0.00 0.00 30 1011.2
20260508182003 64 231 4.3 12.2 0.00 0.00 0.00 30 1011.5
20260508181003 64 227 6.1 13.9 0.00 0.00 0.00 30 1011.4
20260508180003 63 210 5.2 12.2 0.00 0.00 0.00 31 1011.5
20260508175003 63 272 6.1 12.2 0.00 0.00 0.00 31 1011.8
20260508174003 63 209 7.0 11.3 0.00 0.00 0.00 30 1012.1
20260508173003 62 203 6.1 13.9 0.00 0.00 0.00 30 1012.2
20260508172004 63 270 6.1 13.0 0.00 0.00 0.00 31 1012.4
20260508171003 62 290 8.7 14.8 0.00 0.00 0.00 31 1012.7
20260508170003 61 202 6.1 17.4 0.00 0.00 0.00 35 1012.7
20260508165004 62 234 5.2 14.8 0.00 0.00 0.00 34 1012.9
20260508163004 61 203 7.8 15.6 0.00 0.00 0.00 37 1013.4
20260508162004 61 197 9.6 13.9 0.00 0.00 0.00 37 1013.5
20260508161003 61 213 7.0 13.9 0.00 0.00 0.00 36 1013.4
20260508160004 61 225 6.1 12.2 0.00 0.00 0.00 36 1013.5
20260508154003 59 258 4.3 15.6 0.00 0.00 0.00 36 1013.8
20260508153004 59 240 7.8 13.9 0.00 0.00 0.00 37 1014.0
20260508152004 58 230 2.6 12.2 0.00 0.00 0.00 41 1014.0
20260508151003 57 220 6.1 13.9 0.00 0.00 0.00 41 1014.3
20260508150004 58 210 5.2 13.9 0.00 0.00 0.00 42 1014.2
20260508145003 57 209 7.8 13.9 0.00 0.00 0.00 44 1014.2
20260508143004 56 194 5.2 10.4 0.00 0.00 0.00 51 1014.4
20260508142003 55 187 5.2 12.2 0.00 0.00 0.00 54 1014.7
20260508141003 54 181 2.6 12.2 0.00 0.00 0.00 57 1014.6
20260508140003 53 201 7.0 12.2 0.00 0.00 0.00 59 1014.7
20260508135003 52 196 6.1 12.2 0.00 0.00 0.00 61 1014.8
20260508133004 51 208 6.1 12.2 0.00 0.00 0.00 63 1014.8
20260508132004 51 203 5.2 12.2 0.00 0.00 0.00 64 1014.8
20260508130004 48 216 5.2 13.0 0.00 0.00 0.00 71 1014.8
20260508124003 46 174 4.3 10.4 0.00 0.00 0.00 74 1014.7
20260508123004 45 193 5.2 10.4 0.00 0.00 0.00 74 1014.7
20260508122004 45 195 4.3 8.7 0.00 0.00 0.00 74 1014.7
20260508121003 44 185 3.5 7.0 0.00 0.00 0.00 75 1014.6
20260508120003 43 189 4.3 8.7 0.00 0.00 0.00 76 1014.8
20260508115003 42 190 7.0 11.3 0.00 0.00 0.00 77 1014.5
20260508114004 41 174 5.2 7.0 0.00 0.00 0.00 77 1014.6
20260508113004 40 192 2.6 8.7 0.00 0.00 0.00 78 1014.8
20260508110004 39 129 4.3 8.7 0.00 0.00 0.00 78 1014.5
20260508105003 38 171 5.2 7.8 0.00 0.00 0.00 77 1014.3
20260508104003 38 163 2.6 7.8 0.00 0.00 0.00 76 1014.3
20260508103003 38 163 2.6 5.2 0.00 0.00 0.00 77 1014.4
20260508101003 38 160 1.7 6.1 0.00 0.00 0.00 77 1014.4
20260508100004 38 166 2.6 5.2 0.00 0.00 0.00 77 1014.5
20260508095004 39 176 2.6 6.1 0.00 0.00 0.00 76 1014.4
20260508093003 40 196 3.5 7.0 0.00 0.00 0.00 75 1014.6
20260508091004 40 175 4.3 7.8 0.00 0.00 0.00 76 1014.4
20260508090004 40 140 3.5 8.7 0.00 0.00 0.00 76 1014.8
20260508085004 39 165 2.6 7.0 0.00 0.00 0.00 77 1014.5
20260508084004 39 161 2.6 5.2 0.00 0.00 0.00 76 1014.6
20260508083003 39 160 2.6 5.2 0.00 0.00 0.00 75 1014.8
20260508080003 40 188 4.3 7.8 0.00 0.00 0.00 73 1014.9
20260508075004 40 172 3.5 7.8 0.00 0.00 0.00 72 1015.1
20260508074003 40 193 4.3 7.0 0.00 0.00 0.00 72 1015.0
20260508073004 40 180 4.3 7.0 0.00 0.00 0.00 71 1015.3
20260508072004 40 166 3.5 7.8 0.00 0.00 0.00 71 1015.1
20260508071003 40 165 4.3 8.7 0.00 0.00 0.00 70 1015.4
20260508070003 40 168 4.3 8.7 0.00 0.00 0.00 70 1015.6
20260508065003 40 155 4.3 7.8 0.00 0.00 0.00 70 1015.4
20260508064004 40 183 5.2 7.8 0.00 0.00 0.00 69 1015.5
20260508063004 40 162 4.3 7.8 0.00 0.00 0.00 69 1015.8
20260508062003 40 182 5.2 8.7 0.00 0.00 0.00 70 1015.7
20260508061004 40 165 4.3 7.0 0.00 0.00 0.00 70 1015.7
20260508060003 40 176 5.2 10.4 0.00 0.00 0.00 69 1015.8
20260508055004 41 190 5.2 7.8 0.00 0.00 0.00 69 1016.0
20260508054004 41 190 5.2 10.4 0.00 0.00 0.00 69 1015.8
20260508053004 41 185 4.3 8.7 0.00 0.00 0.00 69 1015.7
20260508051003 40 165 1.7 6.1 0.00 0.00 0.00 71 1016.2
20260508050003 40 185 2.6 7.0 0.00 0.00 0.00 72 1016.0
20260508045004 39 142 2.6 5.2 0.00 0.00 0.00 74 1016.0
20260508044003 40 157 1.7 4.3 0.00 0.00 0.00 74 1015.9
20260508043003 40 147 2.6 4.3 0.00 0.00 0.00 74 1016.0
20260508042004 40 137 3.5 5.2 0.00 0.00 0.00 74 1016.2
20260508041003 40 149 2.6 4.3 0.00 0.00 0.00 74 1016.0
20260508040003 40 123 2.6 6.1 0.00 0.00 0.00 74 1016.1
20260508034004 41 118 2.6 5.2 0.00 0.00 0.00 74 1015.9
20260508033003 41 122 2.6 5.2 0.00 0.00 0.00 74 1015.9
20260508032003 41 117 2.6 5.2 0.00 0.00 0.00 73 1015.9
20260508031003 42 131 3.5 7.0 0.00 0.00 0.00 72 1016.0
20260508030004 42 131 2.6 6.1 0.00 0.00 0.00 70 1016.0
20260508025004 43 120 4.3 7.0 0.00 0.00 0.00 69 1015.8
20260508024004 43 122 4.3 5.2 0.00 0.00 0.00 69 1015.9
20260508023003 44 108 2.6 4.3 0.00 0.00 0.00 69 1015.7
20260508022003 44 96 2.6 5.2 0.00 0.00 0.00 67 1015.8
20260508021004 45 105 2.6 5.2 0.00 0.00 0.00 65 1015.8
20260508020004 46 96 2.6 5.2 0.00 0.00 0.00 62 1015.8
20260508015004 47 97 3.5 4.3 0.00 0.00 0.00 53 1015.5
20260508014003 49 104 2.6 2.6 0.00 0.00 0.00 40 1015.3
20260508013004 50 91 1.7 4.3 0.00 0.00 0.00 38 1015.7
20260508012004 50 28 2.6 6.1 0.00 0.00 0.00 38 1015.4
20260508011003 51 11 3.5 8.7 0.00 0.00 0.00 37 1015.2
20260508010003 51 18 4.3 8.7 0.00 0.00 0.00 37 1015.3
20260508005003 51 18 4.3 7.8 0.00 0.00 0.00 38 1015.0
20260508004003 52 355 3.5 7.0 0.00 0.00 0.00 37 1014.9
20260508002004 52 339 1.7 7.0 0.00 0.00 0.00 38 1014.7
20260508001003 52 326 1.7 8.7 0.00 0.00 0.00 38 1014.7
20260507235004 52 5 3.5 7.8 0.00 0.00 0.00 38 1014.6
20260507234003 52 0 4.3 7.0 0.00 0.00 0.00 38 1014.9
20260507233003 52 326 1.7 7.8 0.00 0.00 0.00 39 1014.5
20260507232003 52 293 2.6 7.8 0.00 0.00 0.00 39 1014.7
20260507231003 52 307 3.5 8.7 0.00 0.00 0.00 38 1014.7
20260507230004 53 330 4.3 7.0 0.00 0.00 0.00 38 1015.0
20260507225003 53 321 4.3 11.3 0.00 0.00 0.00 38 1014.7
20260507224004 53 295 4.3 11.3 0.00 0.00 0.00 38 1015.0
20260507223003 53 225 1.7 12.2 0.00 0.00 0.00 38 1015.2
20260507222004 52 287 6.1 11.3 0.00 0.00 0.00 39 1015.2
20260507221003 52 294 5.2 10.4 0.00 0.00 0.00 38 1015.2
20260507220003 52 325 6.1 11.3 0.00 0.00 0.00 38 1015.1
20260507215004 52 300 4.3 8.7 0.00 0.00 0.00 38 1015.4
20260507214004 53 334 4.3 8.7 0.00 0.00 0.00 39 1015.4
20260507213004 51 306 4.3 17.4 0.00 0.00 0.00 39 1015.4
20260507210003 52 265 4.3 13.9 0.00 0.00 0.00 39 1015.2
20260507205003 52 291 6.1 12.2 0.00 0.00 0.00 39 1015.3
20260507204004 51 303 8.7 15.6 0.00 0.00 0.00 40 1015.7
20260507203004 51 307 8.7 18.2 0.00 0.00 0.00 39 1015.7
20260507202004 52 243 2.6 11.3 0.00 0.00 0.00 39 1015.6
20260507201004 51 288 5.2 10.4 0.00 0.00 0.00 42 1015.9
20260507200004 51 328 7.8 13.0 0.00 0.00 0.00 40 1015.8